Probability
0 0 0 0 0 0 0 0 0 0 0 0 0 0 0 0 0 0 0 0 0 0 0 0 0 0 0 0 0 0 0 0 0 0 0 0 0 0 0 0 0 0 0 0
0 0 0 0 0 0 0 0 0 0 0 0 0 0 0 0 0 0 0 0 0 0 0 0 0 0 0 0 0 0 0 0 0 0 0 0 0 0 0 0 0 0 0 0
0 0 0 0 0 0 0 0 0 0 0 0 0 0 0 0 0 0 0 0 0 0 0 0 0 0 0 0 0 0 0 0 0 0 0 0 0 0 0 0 0 0 0 0
0 0 0 0 0 0 0 0 0 0 0 0 0 0 0 0 0 0 0 0 0 0 0 0 0 0 0 0 0 0 0 0 0 0 0 0 0 0 0 0 0 0 0 0
0 0 0 0 0 0 0 0 0 0 0 0 0 0 0 0 0 0 0 0 0 0 0 0 0 0 0 0 0 0 0 0 0 0 0 0 0 0 0 0 0 0 0 0
0 0 0 0 0 0 0 0 0 0 0 0 0 0 0 0 0 0 0 0 0 0 0 0 0 0 0 0 0 0 0 0 0 0 0 0 0 0 0 0 0 0 0 0
0 0 0 0 0 0 0 0 0 0 0 0 0 0 0 0 0 0 0 0 0 0 0 0 0 0 0 0 0 0 0 0 0 0 0 0 0 0 0 0 0 0 0 0
0 0 0 0 0 0 0 0 0 0 0 0 0 0 0 0 0 0 0 0 0 0 0 0 0 0 0 0 0 0 0 0 0 0 0 0 0 0 0 0 0 0 0 0
0 0 0 0 0 0 0 0 0 0 0 0 0 0 0 0 0 0 0 0 0 0 0 0 0 0 0 0 0 0 0 0 0 0 0 0 0 0 0 0 0 0 0 0
0 0 0 0 0 0 0 0 0 0 0 0 0 0 0 0 0 0 0 0 0 0 0 0 0 0 0 0 0 0 0 0 0 0 0 0 0 0 0 0 0 0 0 0
0 0 0 0 0 0 0 0 0 0 0 0 0 0 0 0 0 0 0 0 0 0 0 0 0 0 0 0 0 0 0 0 0 0 0 0 0 0 0 0 0 0 0 0
0 0 0 0 0 0 0 0 0 0 0 0 0 0 0 0 0 0 0 0 0 0 0 0 0 0 0 0 0 0 0 0 0 0 0 0 0 0 0 0 0 0 0 0
0 0 0 0 0 0 0 0 0 0 0 0 0 0 0 0 0 0 0 0 0 0 0 0 0 0 0 0 0 0 0 0 0 0 0 0 0 0 0 0 0 0 0 0
0 0 0 0 0 0 0 0 0 0 0 0 0 0 0 0 0 0 0 0 0 0 0 0 0 0 0 0 0 0 0 0 0 0 0 0 0 0 0 0 0 0 0 0
0 0 0 0 0 0 0 0 0 0 0 0 0 0 0 0 0 0 0 0 0 0 0 0 0 0 0 0 0 0 0 0 0 0 0 0 0 0 0 0 0 0 0 0
0 0 0 0 0 0 0 0 0 0 0 0 0 0 0 0 0 0 0 0 0 0 0 0 0 0 0 0 0 0 0 0 0 0 0 0 0 0 0 0 0 0 0 0
0 0 0 0 0 0 0 0 0 0 0 0 0 0 0 0 0 0 0 0 0 0 0 0 0 0 0 0 0 0 0 0 0 0 0 0 0 0 0 0 0 0 0 0
0 0 0 0 0 0 0 0 0 0 0 0 0 0 0 0 0 0 0 0 0 0 0 0 0 0 0 0 0 0 0 0 0 0 0 0 0 0 0 0 0 0 0 0
0 0 0 0 0 0 0 0 0 0 0 0 0 0 0 0 0 0 0 0 0 0 0 0 0 0 0 0 0 0 0 0 0 0 0 0 0 0 0 0 0 0 0 0
0 0 0 0 0 0 0 0 0 0 0 0 0 0 0 0 0 0 0 0 0 0 0 0 0 0 0 0 0 0 0 0 0 0 0 0 0 0 0 0 0 0 0 0
0 0 0 0 0 0 0 0 0 0 0 0 0 0 0 0 0 0 0 0 0 0 0 0 0 0 0 0 0 0 0 0 0 0 0 0 0 0 0 0 0 0 0 0
0 0 0 0 0 0 0 0 0 0 0 0 0 0 0 0 0 0 0 0 0 0 0 0 0 0 0 0 0 0 0 0 0 0 0 0 0 0 0 0 0 0 0 0
0 0 0 0 0 0 0 0 0 0 0 0 0 0 0 0 0 0 0 0 0 0 0 0 0 0 0 0 0 0 0 0 0 0 0 0 0 0 0 0 0 0 0 0
0 0 0 0 0 0 0 0 0 0 0 0 0 0 0 0 0 0 0 0 0 0 0 0 0 0 0 0 0 0 0 0 0 0 0 0 0 0 0 0 0 0 0 0
0 0 0 0 0 0 0 0 0 0 0 0 0 0 0 0 0 0 0 0 0 0 0 0 0 0 0 0 0 0 0 0 0 0 0 0 0 0 0 0 0 0 0 0
0 0 0 0 0 0 0 0 0 0 0 0 0 0 0 0 0 0 0 0 0 0 0 0 0 0 0 0 0 0 0 0 0 0 0 0 0 0 0 0 0 0 0 0
0 0 0 0 0 0 0 0 0 0 0 0 0 0 0 0 0 0 0 0 0 0 0 0 0 0 0 0 0 0 0 0 0 0 0 0 0 0 0 0 0 0 0 0
Height
5565 5560 5556 5551 5548 5544 5541 5539 5539 5540 5542 5547 5550 5556 5564 5574 5583 5593 5603 5611 5619 5627 5634 5640 5645 5650 5654 5657 5659 5660 5661 5662 5662 5661 5660 5658 5656 5653 5649 5644 5639 5634 5627 5621
5564 5559 5555 5551 5548 5544 5541 5540 5540 5542 5545 5550 5554 5561 5569 5577 5585 5594 5602 5610 5617 5624 5630 5636 5641 5645 5648 5651 5653 5654 5655 5655 5655 5654 5652 5650 5647 5643 5639 5634 5628 5622 5616 5609
5564 5560 5556 5553 5550 5547 5545 5545 5545 5547 5551 5555 5560 5566 5573 5580 5588 5595 5602 5610 5616 5622 5627 5632 5637 5640 5643 5645 5647 5648 5649 5648 5648 5646 5644 5641 5637 5633 5628 5623 5617 5610 5603 5596
5565 5563 5559 5559 5554 5552 5550 5550 5551 5553 5556 5561 5566 5572 5578 5585 5591 5597 5603 5609 5615 5620 5625 5629 5633 5636 5638 5640 5641 5642 5642 5641 5640 5638 5635 5632 5628 5623 5618 5612 5605 5598 5591 5583
5567 5565 5563 5562 5560 5558 5557 5558 5559 5561 5564 5568 5572 5578 5584 5589 5594 5599 5605 5610 5615 5619 5623 5626 5629 5632 5634 5635 5635 5635 5635 5634 5632 5629 5626 5622 5618 5612 5607 5600 5594 5587 5579 5571
5569 5568 5567 5567 5566 5564 5566 5566 5567 5569 5572 5575 5578 5583 5588 5592 5596 5601 5606 5610 5614 5618 5621 5623 5626 5627 5628 5629 5629 5628 5627 5626 5623 5620 5617 5612 5607 5602 5596 5589 5582 5575 5566 5558
5571 5570 5570 5571 5570 5571 5573 5574 5574 5576 5578 5581 5584 5587 5591 5594 5598 5602 5606 5609 5612 5615 5618 5619 5621 5622 5622 5623 5622 5621 5620 5617 5615 5611 5607 5602 5597 5591 5585 5578 5571 5563 5555 5546
5572 5572 5575 5573 5573 5575 5576 5577 5578 5580 5582 5584 5587 5589 5592 5595 5598 5601 5604 5607 5610 5612 5613 5615 5616 5616 5617 5616 5616 5614 5612 5609 5606 5602 5597 5592 5587 5581 5574 5567 5559 5551 5543 5533
5574 5575 5574 5574 5575 5576 5577 5578 5580 5582 5584 5586 5588 5590 5592 5595 5597 5600 5602 5604 5606 5608 5609 5610 5611 5611 5611 5610 5608 5606 5604 5600 5597 5593 5588 5582 5576 5570 5563 5555 5548 5539 5530 5520
5572 5573 5574 5575 5575 5577 5578 5579 5580 5582 5584 5585 5587 5589 5591 5593 5596 5598 5599 5601 5602 5604 5605 5605 5605 5605 5604 5603 5601 5598 5595 5592 5588 5583 5578 5572 5566 5559 5551 5544 5536 5527 5517 5506
5571 5572 5573 5574 5575 5577 5578 5579 5580 5582 5583 5585 5586 5588 5590 5592 5593 5595 5596 5598 5599 5600 5600 5600 5600 5599 5598 5596 5593 5591 5587 5583 5579 5574 5568 5562 5555 5548 5541 5532 5523 5513 5503 5491
5570 5572 5573 5574 5575 5576 5577 5579 5580 5581 5583 5584 5586 5587 5589 5590 5591 5593 5594 5595 5596 5596 5596 5595 5594 5593 5591 5589 5586 5583 5579 5574 5569 5564 5558 5552 5545 5537 5528 5519 5509 5497 5485 5472
5568 5570 5571 5573 5574 5575 5576 5578 5579 5580 5582 5583 5584 5586 5587 5588 5589 5590 5591 5592 5592 5591 5591 5590 5588 5586 5584 5581 5578 5574 5570 5565 5560 5554 5548 5542 5535 5527 5518 5507 5494 5481 5468 5454
5566 5568 5569 5571 5572 5574 5575 5576 5578 5579 5580 5582 5583 5584 5585 5586 5587 5587 5588 5588 5587 5586 5585 5583 5581 5579 5576 5573 5570 5566 5561 5556 5551 5545 5539 5532 5524 5515 5506 5495 5484 5469 5453 5437
5563 5565 5567 5569 5570 5572 5573 5575 5576 5578 5579 5580 5581 5582 5583 5584 5584 5584 5584 5583 5582 5580 5579 5577 5575 5572 5569 5565 5561 5557 5552 5547 5541 5535 5528 5521 5512 5503 5492 5480 5467 5453 5438 5422
5561 5562 5564 5566 5568 5570 5572 5573 5575 5576 5577 5578 5579 5580 5580 5580 5580 5579 5579 5577 5576 5574 5572 5570 5567 5565 5561 5557 5553 5548 5543 5538 5532 5525 5518 5509 5500 5489 5477 5464 5450 5435 5420 5406
5558 5560 5562 5564 5566 5568 5570 5571 5573 5574 5575 5576 5576 5576 5576 5576 5575 5574 5573 5571 5570 5568 5566 5563 5560 5557 5553 5549 5545 5540 5535 5529 5522 5515 5506 5497 5487 5475 5462 5448 5434 5419 5403 5388
5557 5559 5561 5563 5564 5566 5567 5569 5570 5571 5571 5572 5572 5572 5571 5570 5569 5568 5567 5565 5563 5561 5559 5556 5553 5549 5545 5541 5536 5531 5526 5519 5512 5504 5495 5484 5473 5460 5447 5432 5417 5402 5388 5375
5554 5556 5558 5560 5562 5563 5564 5565 5566 5567 5567 5567 5567 5566 5566 5564 5563 5562 5560 5559 5557 5554 5552 5548 5545 5541 5537 5533 5528 5523 5517 5510 5502 5492 5482 5471 5458 5444 5431 5416 5401 5387 5375 5365
5551 5553 5555 5557 5558 5559 5560 5561 5561 5562 5562 5562 5561 5561 5560 5559 5557 5556 5554 5552 5550 5548 5544 5541 5538 5534 5530 5525 5520 5514 5507 5499 5490 5480 5469 5457 5443 5429 5415 5400 5387 5375 5365 5357
5548 5549 5551 5552 5554 5555 5555 5556 5556 5556 5556 5556 5556 5555 5554 5552 5551 5550 5548 5546 5543 5541 5538 5534 5531 5527 5523 5517 5512 5505 5497 5488 5479 5468 5456 5443 5429 5415 5400 5387 5375 5366 5358 5352
5543 5544 5546 5547 5548 5549 5550 5550 5551 5551 5550 5550 5549 5549 5547 5546 5545 5543 5541 5539 5537 5534 5531 5528 5524 5520 5515 5509 5502 5495 5486 5477 5466 5455 5442 5429 5415 5401 5387 5376 5366 5359 5353 5349
5537 5538 5540 5541 5542 5543 5544 5544 5544 5545 5544 5544 5543 5542 5541 5540 5539 5537 5535 5533 5531 5528 5525 5521 5517 5512 5506 5500 5492 5484 5475 5465 5454 5442 5428 5415 5401 5388 5377 5367 5360 5354 5351 5349
5531 5533 5534 5535 5536 5537 5537 5538 5538 5538 5538 5537 5537 5536 5535 5534 5532 5531 5529 5527 5524 5521 5518 5514 5509 5504 5497 5490 5482 5473 5463 5453 5441 5428 5415 5401 5388 5377 5368 5361 5356 5352 5350 5350
5525 5527 5528 5529 5530 5530 5531 5531 5531 5532 5532 5531 5531 5530 5529 5528 5526 5525 5523 5521 5518 5515 5510 5506 5501 5494 5487 5480 5471 5462 5451 5440 5428 5415 5402 5389 5378 5369 5362 5357 5353 5352 5352 5352
5519 5520 5522 5523 5523 5524 5525 5525 5525 5525 5525 5525 5524 5524 5523 5522 5520 5519 5517 5514 5511 5507 5503 5497 5491 5485 5477 5469 5460 5450 5439 5427 5415 5402 5390 5379 5370 5363 5358 5355 5353 5353 5354 5354
5512 5514 5515 5516 5517 5517 5518 5518 5519 5519 5519 5518 5518 5517 5516 5515 5514 5512 5510 5507 5503 5499 5494 5488 5482 5474 5467 5458 5449 5439 5427 5415 5403 5391 5380 5372 5365 5359 5356 5354 5354 5355 5356 5356
Wind_Speed
16 17 18 19 18 18 18 17 14 6 9 17 20 25 30 33 35 36 35 34 34 34 33 33 33 32 31 30 30 29 29 29 30 31 33 35 38 40 42 44 47 50 53 55
13 14 14 14 12 9 6 4 1 9 16 20 24 27 30 31 33 33 32 31 30 30 30 30 30 29 28 28 28 28 28 29 30 32 34 36 38 41 43 46 49 52 55 57
12 13 13 13 11 7 4 6 11 17 22 23 25 26 27 29 30 30 29 28 28 28 28 28 27 26 26 26 26 26 27 29 31 32 34 37 39 42 45 49 51 54 56 59
11 13 15 13 10 8 10 13 17 21 23 24 25 25 26 26 26 26 26 26 26 25 25 24 24 23 23 24 24 26 28 29 31 33 35 38 41 44 47 50 53 55 58 61
9 12 12 12 12 11 13 17 20 22 23 24 25 23 23 23 22 22 22 22 22 21 21 21 20 21 21 23 25 26 28 29 31 34 37 40 43 46 48 51 54 57 59 61
6 8 9 10 11 13 14 16 18 19 19 21 21 21 20 20 19 19 18 18 18 18 18 18 19 20 22 23 24 26 28 30 33 36 39 41 44 47 50 53 55 58 59 60
2 4 6 7 8 9 11 13 12 13 14 14 15 15 16 16 16 16 15 15 16 16 17 18 19 20 21 23 25 27 29 32 35 38 40 42 45 48 51 54 55 56 57 60
2 0 2 3 4 5 7 8 8 8 9 9 10 10 11 11 12 12 13 14 16 16 17 18 19 20 22 24 26 28 31 34 36 38 41 44 46 49 51 53 53 55 57 62
5 4 3 2 1 3 4 5 6 7 8 9 9 9 9 10 11 12 13 14 15 15 16 17 19 20 22 25 27 29 32 34 36 39 42 45 47 49 50 51 53 56 60 65
9 8 7 5 4 4 4 4 5 5 7 8 8 8 9 10 11 12 12 13 14 15 16 17 19 21 23 26 28 30 33 35 37 40 43 45 47 48 49 52 56 60 64 68
11 10 9 7 6 6 5 5 5 6 6 7 7 8 9 10 10 11 11 12 13 14 16 18 20 22 25 27 29 31 33 36 39 41 43 44 45 47 51 55 59 63 68 73
11 10 9 8 7 6 6 6 6 6 6 7 7 8 9 9 10 11 11 12 14 15 17 20 22 24 26 28 30 32 35 38 40 41 42 43 46 49 54 58 63 68 74 79
12 11 10 10 8 8 8 8 8 7 7 8 8 8 9 9 10 11 12 14 16 18 20 22 24 26 28 30 32 34 36 38 39 40 41 44 47 51 56 61 68 73 79 83
14 13 12 12 10 9 9 9 9 8 8 7 8 8 9 9 10 12 14 16 18 21 23 24 26 27 29 31 33 35 36 37 38 40 43 46 50 55 60 64 70 76 82 86
13 13 13 12 12 11 10 10 10 9 8 8 8 9 10 11 13 15 18 19 21 23 24 25 27 28 30 32 34 35 36 37 39 42 45 49 54 59 65 70 75 80 85 87
12 12 12 12 12 11 11 11 10 10 10 10 10 11 13 15 17 19 20 22 23 24 25 26 28 30 31 33 34 34 35 38 41 44 49 54 59 64 70 75 80 84 86 83
11 11 12 12 12 11 10 10 10 11 11 12 14 15 17 18 20 21 22 23 24 25 26 28 29 31 32 32 33 34 37 40 44 48 53 58 64 69 74 79 83 86 83 77
11 11 12 12 12 11 11 11 12 13 14 16 17 19 20 21 22 22 23 24 25 26 28 29 30 30 31 32 34 36 39 43 48 53 58 63 69 74 78 82 85 82 74 65
13 13 13 13 13 14 14 15 16 17 18 19 20 20 21 22 23 23 24 25 26 27 28 29 30 30 31 33 35 39 43 48 52 57 63 68 73 78 81 83 80 73 63 52
15 15 15 16 16 17 17 18 19 20 20 21 21 22 22 23 24 25 25 26 27 28 28 29 30 31 32 35 38 43 47 52 57 62 67 72 76 80 82 79 72 61 51 39
18 18 18 18 19 20 20 21 21 21 21 21 22 22 23 24 25 25 26 27 27 28 28 29 30 32 35 38 42 47 51 56 61 66 71 75 78 80 78 70 60 49 38 27
20 20 20 21 21 21 21 22 22 22 22 22 23 23 24 24 25 26 26 27 27 27 28 29 32 34 38 42 46 51 55 60 65 70 74 77 79 76 69 58 48 38 26 16
20 21 21 21 21 22 22 22 22 22 23 23 23 23 24 25 25 26 26 26 26 27 29 31 34 38 42 46 50 55 59 64 69 72 75 77 75 68 57 46 37 26 15 7
21 22 22 22 22 22 22 23 23 23 23 23 23 23 24 25 25 25 25 25 26 29 31 34 38 42 46 50 54 58 62 67 71 74 76 74 67 56 45 36 26 14 6 4
21 21 21 21 22 22 22 22 22 22 23 23 23 24 24 24 24 24 24 26 28 31 34 37 41 46 50 53 57 61 65 69 72 74 73 66 55 45 35 25 14 4 5 7
22 22 22 22 22 22 22 22 22 23 23 23 23 23 23 23 23 24 26 28 31 34 38 41 45 49 53 56 60 64 67 71 73 72 65 55 44 34 24 14 4 5 8 8
24 24 24 24 24 24 24 24 24 23 23 23 23 23 23 23 24 26 29 32 35 38 41 45 49 52 55 58 62 66 69 72 71 65 55 44 34 24 13 4 5 8 9 9
Wind_Direction
329 327 325 320 312 298 288 286 283 249 179 165 167 168 170 174 178 183 187 192 196 201 206 211 216 221 227 233 239 246 252 259 266 272 277 281 284 288 291 294 296 298 300 301
345 341 338 342 337 316 308 299 170 152 146 153 158 162 166 172 176 180 185 190 193 198 203 208 214 220 226 233 241 248 256 263 270 275 279 283 287 291 293 296 297 300 302 303
3 2 6 5 5 20 60 103 125 135 146 154 155 161 165 168 172 177 182 187 192 196 201 207 214 221 228 236 245 254 262 268 273 278 283 287 290 293 296 298 300 302 303 305
15 18 21 29 38 67 97 112 123 136 142 148 155 159 163 167 171 174 179 185 191 197 203 211 219 227 235 245 253 260 267 272 277 282 286 290 293 295 298 300 302 303 305 306
21 27 36 52 62 87 105 114 124 132 138 146 151 156 160 163 169 174 180 188 194 202 209 218 226 235 244 252 260 266 272 277 282 286 289 293 295 298 300 302 303 304 306 307
32 39 48 60 70 86 103 109 120 129 136 143 147 151 156 163 170 177 185 194 202 210 218 227 237 246 253 260 266 272 277 282 286 289 293 295 298 300 301 303 304 306 307 309
47 51 63 76 80 89 105 112 119 126 134 143 151 159 165 172 180 189 198 207 216 225 233 241 249 255 261 267 272 277 282 286 290 292 295 297 299 301 303 304 306 308 309 310
231 206 72 92 91 100 115 127 134 142 148 157 169 177 181 188 197 206 216 225 233 239 245 251 258 263 268 273 278 283 286 289 292 295 297 300 301 303 305 306 308 309 311 312
235 236 233 216 179 151 151 158 162 171 178 183 190 196 202 210 218 224 230 237 243 248 254 260 265 270 275 280 284 287 290 293 296 298 300 302 304 305 307 308 310 311 312 313
234 237 240 238 230 221 213 205 200 200 201 203 208 214 219 225 230 235 240 245 250 256 261 267 272 277 281 285 288 291 294 297 299 301 303 304 306 307 309 310 311 312 313 315
233 235 238 236 230 226 224 222 218 214 214 217 221 224 227 230 235 242 247 252 258 264 270 275 280 284 287 290 293 296 298 300 302 304 305 307 308 309 310 311 312 314 315 317
235 236 238 236 236 232 229 226 226 222 222 225 227 230 234 240 245 251 257 263 269 275 280 284 286 289 292 294 297 299 301 303 305 307 308 309 310 311 312 314 315 317 318 319
235 235 237 233 231 230 231 230 225 224 229 233 235 240 245 250 256 261 268 274 279 283 286 289 291 294 296 298 300 302 304 306 308 309 310 310 312 313 315 316 318 319 320 321
235 237 236 232 229 229 226 226 227 230 234 237 244 250 254 258 265 272 277 281 285 288 291 293 296 298 300 302 304 305 307 308 309 310 311 312 314 316 317 318 319 320 321 322
235 234 232 229 228 226 227 230 232 234 237 244 250 256 262 269 275 280 284 287 290 292 295 297 299 301 302 304 306 307 308 309 311 312 314 315 317 319 320 321 321 322 322 322
231 230 229 226 225 229 232 232 233 237 244 252 260 268 275 281 285 288 289 291 293 296 298 300 301 303 305 306 307 308 310 312 313 315 317 318 320 321 322 322 323 323 323 323
228 225 224 222 222 223 225 229 235 244 254 262 271 279 284 287 289 291 293 294 296 298 300 301 303 305 307 308 309 310 312 315 316 318 319 321 322 323 323 323 323 323 324 324
224 221 219 218 220 227 232 239 248 257 264 271 278 283 287 289 292 293 295 296 298 300 302 304 305 307 308 309 311 313 315 317 319 320 322 323 324 324 324 324 324 324 325 325
223 222 224 226 232 237 244 252 260 266 271 276 280 285 288 291 292 294 296 297 299 302 304 306 307 308 310 312 314 316 318 320 321 323 324 324 324 325 324 325 325 325 326 326
228 230 234 238 243 248 254 261 266 272 276 280 283 286 289 291 292 294 296 298 301 304 305 307 308 310 313 315 317 319 320 322 323 324 325 325 325 325 325 325 326 327 327 328
236 239 242 247 251 255 260 265 269 273 277 280 283 285 288 290 292 295 297 300 302 305 306 308 310 313 315 317 319 321 322 324 325 326 326 326 326 326 326 327 328 329 329 331
242 243 246 250 254 258 262 266 270 273 276 279 281 284 287 290 293 295 298 300 303 305 308 310 312 315 317 319 321 322 324 325 326 326 326 326 326 327 327 328 329 331 333 336
246 247 248 251 255 259 262 266 269 272 275 278 281 284 287 289 292 295 298 301 304 307 309 312 314 317 319 321 323 324 325 326 327 327 327 327 327 328 329 329 331 333 338 354
248 249 251 253 256 260 263 266 268 271 274 277 280 283 286 289 292 295 299 302 305 308 311 314 316 319 321 322 324 325 326 327 327 327 328 328 328 329 330 331 334 339 4 73
250 252 253 255 257 260 262 265 268 270 273 276 279 282 285 288 291 295 299 303 307 311 314 316 318 320 322 324 325 326 327 327 328 328 328 329 329 330 331 333 340 11 98 105
251 252 253 255 257 259 261 264 266 269 273 275 278 281 284 287 291 296 300 305 309 313 316 318 320 322 323 325 326 327 327 328 328 329 329 329 329 331 333 339 11 113 118 112
250 252 253 255 256 258 260 263 266 268 270 272 275 279 283 288 293 298 303 308 312 315 318 320 322 323 324 325 326 328 328 329 329 329 329 330 330 332 337 4 120 128 123 114